Location: Unspecified
(42.3650°N, 71.1030°W)
Time: 15:57:41
(UTC+00:00)

Tiros 1 - Pass Details

Date: 27 June 2024
Orbit: 624 x 656 km, 48.4° (Epoch: 13 July)

Event Time Altitude Azimuth Distance (km) Brightness Sun altitude
Rises 05:32:02 0° 281° (W) 2,902 10.5 -23.5°
Reaches altitude 10° 05:34:29 10° 289° (WNW) 1,997 9.7 -23.4°
Maximum altitude 05:38:47 38° 359° (N) 956 8.5 -23.3°
Drops below altitude 10° 05:43:07 10° 68° (ENE) 2,010 10.1 -23.1°
Sets 05:45:35 0° 76° (ENE) 2,923 10.9 -23.0°
